Location: Bailleul
(50.3375°N, 2.8513°E)
Time: 02:52:49
(UTC+00:00)

Cosmos 1980 - Pass Details

Date: 30 October 2021
Orbit: 839 x 847 km, 71.0° (Epoch: 01 December)

Event Time Altitude Azimuth Distance (km) Brightness Sun altitude
Exits shadow 05:23:11 - 323° (NW) 2,953 6.1 -12.1°
Reaches altitude 10° 05:24:31 10° 319° (NW) 2,472 5.7 -11.8°
Maximum altitude 05:29:46 41° 252° (WSW) 1,215 4.1 -11.0°
Drops below altitude 10° 05:35:01 10° 184° (S) 2,461 6.2 -10.2°
Sets 05:37:34 0° 177° (S) 3,393 7.0 -9.8°
